Location: Baia Mare
(47.6567°N, 23.5850°E)
Time: 02:29:20
(UTC+03:00)

ISS - Pass Details

Date: 24 July 2018
Orbit: 402 x 408 km, 51.6° (Epoch: 22 July)

Event Time Altitude Azimuth Distance (km) Brightness Sun altitude
Rises 01:23:56 0° 291° (WNW) 2,327 0.3 -22.4°
Reaches altitude 10° 01:26:03 10° 296° (WNW) 1,467 -0.7 -22.4°
Enters shadow 01:29:10 50° 6° (N) 525 -3.0 -22.4°
